| time (UTC) | temp F | wind direction | speed MPH | gust MPH | rain 1hr in | rain 24hr in | rain mn in | humidity % | barometer mb |
| 20260901083034 | 79 | 178 | 0.0 | 3.0 | 0.00 | 0.00 | 0.00 | 66 | 1013.2 |
| 20260901082534 | 79 | 178 | 1.0 | 4.0 | 0.00 | 0.00 | 0.00 | 66 | 1013.2 |
| 20260901082034 | 79 | 178 | 2.0 | 4.0 | 0.00 | 0.00 | 0.00 | 65 | 1013.2 |
| 20260901081536 | 79 | 186 | 1.0 | 4.0 | 0.00 | 0.00 | 0.00 | 65 | 1013.1 |
| 20260901081033 | 79 | 171 | 3.0 | 4.0 | 0.00 | 0.00 | 0.00 | 64 | 1013.0 |
| 20260901080533 | 79 | 171 | 2.0 | 4.0 | 0.00 | 0.00 | 0.00 | 64 | 1013.0 |
| 20260901080037 | 79 | 171 | 2.0 | 5.0 | 0.00 | 0.00 | 0.00 | 64 | 1013.0 |
| 20260901075634 | 79 | 181 | 2.0 | 6.0 | 0.00 | 0.00 | 0.00 | 64 | 1013.0 |
| 20260901075035 | 79 | 180 | 3.0 | 6.0 | 0.00 | 0.00 | 0.00 | 64 | 1013.0 |
| 20260901074533 | 79 | 178 | 3.0 | 6.0 | 0.00 | 0.00 | 0.00 | 64 | 1013.0 |
| 20260901074032 | 78 | 175 | 4.0 | 6.0 | 0.00 | 0.00 | 0.00 | 65 | 1013.0 |
| 20260901073532 | 78 | 156 | 1.0 | 3.0 | 0.00 | 0.00 | 0.00 | 65 | 1013.1 |
| 20260901073033 | 78 | 156 | 0.0 | 3.0 | 0.00 | 0.00 | 0.00 | 65 | 1013.1 |
| 20260901072532 | 78 | 156 | 0.0 | 5.0 | 0.00 | 0.00 | 0.00 | 65 | 1013.1 |
| 20260901072034 | 78 | 156 | 2.0 | 5.0 | 0.00 | 0.00 | 0.00 | 65 | 1013.1 |
| 20260901071532 | 78 | 153 | 2.0 | 3.0 | 0.00 | 0.00 | 0.00 | 63 | 1013.0 |
| 20260901071030 | 78 | 153 | 2.0 | 3.0 | 0.00 | 0.00 | 0.00 | 63 | 1013.1 |
| 20260901070531 | 78 | 153 | 1.0 | 3.0 | 0.00 | 0.00 | 0.00 | 63 | 1013.2 |
| 20260901070031 | 78 | 153 | 1.0 | 3.0 | 0.00 | 0.00 | 0.00 | 64 | 1013.2 |
| 20260901065632 | 78 | 153 | 2.0 | 6.0 | 0.00 | 0.00 | 0.00 | 64 | 1013.1 |
| 20260901065033 | 78 | 152 | 2.0 | 6.0 | 0.00 | 0.00 | 0.00 | 64 | 1013.1 |
| 20260901064531 | 78 | 152 | 2.0 | 6.0 | 0.00 | 0.00 | 0.00 | 64 | 1013.1 |
| 20260901064033 | 78 | 152 | 2.0 | 6.0 | 0.00 | 0.00 | 0.00 | 63 | 1013.1 |
| 20260901063529 | 78 | 153 | 3.0 | 7.0 | 0.00 | 0.00 | 0.00 | 63 | 1013.1 |
| 20260901063036 | 78 | 154 | 5.0 | 7.0 | 0.00 | 0.00 | 0.00 | 62 | 1013.1 |
| 20260901062529 | 78 | 155 | 4.0 | 6.0 | 0.00 | 0.00 | 0.00 | 62 | 1013.1 |
| 20260901062029 | 78 | 150 | 3.0 | 6.0 | 0.00 | 0.00 | 0.00 | 62 | 1013.1 |
| 20260901061529 | 78 | 150 | 3.0 | 5.0 | 0.00 | 0.00 | 0.00 | 62 | 1013.1 |
| 20260901061029 | 78 | 150 | 2.0 | 6.0 | 0.00 | 0.00 | 0.00 | 62 | 1013.1 |
| 20260901060529 | 78 | 150 | 3.0 | 7.0 | 0.00 | 0.00 | 0.00 | 62 | 1013.1 |
| 20260901060027 | 78 | 150 | 4.0 | 7.0 | 0.00 | 0.00 | 0.00 | 61 | 1013.1 |
| 20260901055627 | 78 | 151 | 3.0 | 6.0 | 0.00 | 0.00 | 0.00 | 61 | 1013.1 |
| 20260901055028 | 78 | 151 | 3.0 | 6.0 | 0.00 | 0.00 | 0.00 | 61 | 1013.1 |
| 20260901054526 | 78 | 152 | 3.0 | 7.0 | 0.00 | 0.00 | 0.00 | 60 | 1013.1 |
| 20260901054026 | 78 | 153 | 3.0 | 6.0 | 0.00 | 0.00 | 0.00 | 60 | 1013.0 |
| 20260901053528 | 78 | 149 | 2.0 | 5.0 | 0.00 | 0.00 | 0.00 | 60 | 1013.0 |
| 20260901053025 | 79 | 149 | 3.0 | 6.0 | 0.00 | 0.00 | 0.00 | 59 | 1012.9 |
| 20260901052523 | 79 | 149 | 3.0 | 6.0 | 0.00 | 0.00 | 0.00 | 59 | 1012.9 |
| 20260901052022 | 79 | 149 | 3.0 | 6.0 | 0.00 | 0.00 | 0.00 | 58 | 1012.9 |
| 20260901051532 | 79 | 150 | 3.0 | 5.0 | 0.00 | 0.00 | 0.00 | 58 | 1012.8 |
| 20260901051022 | 80 | 150 | 2.0 | 5.0 | 0.00 | 0.00 | 0.00 | 57 | 1012.8 |
| 20260901050519 | 80 | 150 | 2.0 | 5.0 | 0.00 | 0.00 | 0.00 | 57 | 1012.8 |
| 20260901050018 | 80 | 150 | 3.0 | 6.0 | 0.00 | 0.00 | 0.00 | 56 | 1012.8 |
| 20260901045617 | 81 | 150 | 3.0 | 6.0 | 0.00 | 0.00 | 0.00 | 55 | 1012.7 |
| 20260901045023 | 81 | 150 | 4.0 | 6.0 | 0.00 | 0.00 | 0.00 | 55 | 1012.7 |
| 20260901044517 | 81 | 150 | 3.0 | 7.0 | 0.00 | 0.00 | 0.00 | 54 | 1012.7 |
| 20260901044019 | 81 | 150 | 3.0 | 7.0 | 0.00 | 0.00 | 0.00 | 53 | 1012.8 |
| 20260901043517 | 81 | 150 | 4.0 | 6.0 | 0.00 | 0.00 | 0.00 | 53 | 1012.7 |
| 20260901043028 | 82 | 157 | 3.0 | 7.0 | 0.00 | 0.00 | 0.00 | 53 | 1012.7 |
| 20260901042517 | 82 | 149 | 4.0 | 7.0 | 0.00 | 0.00 | 0.00 | 51 | 1012.6 |
| 20260901042017 | 83 | 149 | 4.0 | 7.0 | 0.00 | 0.00 | 0.00 | 50 | 1012.7 |
| 20260901041517 | 83 | 151 | 4.0 | 8.0 | 0.00 | 0.00 | 0.00 | 50 | 1012.6 |
| 20260901041016 | 83 | 168 | 5.0 | 8.0 | 0.00 | 0.00 | 0.00 | 50 | 1012.7 |
| 20260901040518 | 83 | 153 | 5.0 | 8.0 | 0.00 | 0.00 | 0.00 | 49 | 1012.7 |
| 20260901040023 | 83 | 157 | 5.0 | 8.0 | 0.00 | 0.00 | 0.00 | 49 | 1012.7 |
| 20260901035616 | 83 | 159 | 4.0 | 7.0 | 0.00 | 0.00 | 0.00 | 48 | 1012.7 |
| 20260901035018 | 83 | 159 | 3.0 | 7.0 | 0.00 | 0.00 | 0.00 | 48 | 1012.7 |
| 20260901034517 | 83 | 161 | 5.0 | 7.0 | 0.00 | 0.00 | 0.00 | 48 | 1012.7 |
| 20260901034019 | 83 | 153 | 4.0 | 7.0 | 0.00 | 0.00 | 0.00 | 47 | 1012.7 |
| 20260901033515 | 83 | 150 | 3.0 | 7.0 | 0.00 | 0.00 | 0.00 | 47 | 1012.6 |
| 20260901033018 | 83 | 169 | 4.0 | 6.0 | 0.00 | 0.00 | 0.00 | 47 | 1012.6 |
| 20260901032515 | 83 | 154 | 2.0 | 6.0 | 0.00 | 0.00 | 0.00 | 46 | 1012.6 |
| 20260901032016 | 83 | 152 | 2.0 | 6.0 | 0.00 | 0.00 | 0.00 | 46 | 1012.6 |
| 20260901031517 | 83 | 148 | 3.0 | 5.0 | 0.00 | 0.00 | 0.00 | 46 | 1012.6 |
| 20260901031014 | 84 | 136 | 3.0 | 7.0 | 0.00 | 0.00 | 0.00 | 46 | 1012.5 |
| 20260901030514 | 84 | 149 | 4.0 | 7.0 | 0.00 | 0.00 | 0.00 | 46 | 1012.4 |
| 20260901030015 | 84 | 141 | 4.0 | 7.0 | 0.00 | 0.00 | 0.00 | 46 | 1012.4 |
| 20260901025615 | 85 | 150 | 3.0 | 8.0 | 0.00 | 0.00 | 0.00 | 45 | 1012.3 |
| 20260901025015 | 85 | 159 | 4.0 | 10.0 | 0.00 | 0.00 | 0.00 | 45 | 1012.4 |
| 20260901024516 | 85 | 151 | 3.0 | 10.0 | 0.00 | 0.00 | 0.00 | 45 | 1012.4 |
| 20260901024017 | 85 | 141 | 5.0 | 9.0 | 0.00 | 0.00 | 0.00 | 45 | 1012.3 |
| 20260901023515 | 85 | 165 | 4.0 | 9.0 | 0.00 | 0.00 | 0.00 | 45 | 1012.2 |
| 20260901023025 | 85 | 135 | 4.0 | 8.0 | 0.00 | 0.00 | 0.00 | 45 | 1012.1 |
| 20260901022518 | 85 | 150 | 4.0 | 7.0 | 0.00 | 0.00 | 0.00 | 45 | 1012.1 |
| 20260901022015 | 86 | 166 | 4.0 | 7.0 | 0.00 | 0.00 | 0.00 | 45 | 1012.0 |
| 20260901021514 | 86 | 166 | 3.0 | 8.0 | 0.00 | 0.00 | 0.00 | 45 | 1011.9 |
| 20260901021015 | 86 | 152 | 4.0 | 8.0 | 0.00 | 0.00 | 0.00 | 45 | 1011.9 |
| 20260901020515 | 86 | 150 | 4.0 | 8.0 | 0.00 | 0.00 | 0.00 | 46 | 1011.8 |
| 20260901020014 | 86 | 156 | 4.0 | 8.0 | 0.00 | 0.00 | 0.00 | 46 | 1011.7 |
| 20260901015614 | 86 | 153 | 3.0 | 5.0 | 0.00 | 0.00 | 0.00 | 45 | 1011.6 |
| 20260901015014 | 86 | 153 | 2.0 | 5.0 | 0.00 | 0.00 | 0.00 | 45 | 1011.6 |
| 20260901014514 | 87 | 150 | 3.0 | 7.0 | 0.00 | 0.00 | 0.00 | 44 | 1011.6 |
| 20260901014015 | 87 | 148 | 4.0 | 7.0 | 0.00 | 0.00 | 0.00 | 44 | 1011.4 |
| 20260901013515 | 87 | 154 | 4.0 | 7.0 | 0.00 | 0.00 | 0.00 | 43 | 1011.5 |
| 20260901013014 | 87 | 161 | 4.0 | 7.0 | 0.00 | 0.00 | 0.00 | 43 | 1011.4 |
| 20260901012515 | 88 | 148 | 4.0 | 7.0 | 0.00 | 0.00 | 0.00 | 43 | 1011.4 |
| 20260901012014 | 88 | 161 | 2.0 | 7.0 | 0.00 | 0.00 | 0.00 | 42 | 1011.4 |
| 20260901011517 | 89 | 161 | 4.0 | 10.0 | 0.00 | 0.00 | 0.00 | 41 | 1011.3 |
| 20260901011014 | 89 | 155 | 5.0 | 10.0 | 0.00 | 0.00 | 0.00 | 41 | 1011.3 |
| 20260901010515 | 90 | 175 | 3.0 | 6.0 | 0.00 | 0.00 | 0.00 | 40 | 1011.2 |
| 20260901010014 | 90 | 178 | 1.0 | 3.0 | 0.00 | 0.00 | 0.00 | 40 | 1011.1 |
| 20260901005615 | 91 | 178 | 1.0 | 4.0 | 0.00 | 0.00 | 0.00 | 39 | 1011.0 |
| 20260901005013 | 91 | 178 | 2.0 | 4.0 | 0.00 | 0.00 | 0.00 | 38 | 1011.0 |
| 20260901004513 | 92 | 173 | 1.0 | 5.0 | 0.00 | 0.00 | 0.00 | 38 | 1010.9 |
| 20260901004012 | 92 | 216 | 0.0 | 4.0 | 0.00 | 0.00 | 0.00 | 37 | 1010.9 |
| 20260901003513 | 93 | 218 | 1.0 | 5.0 | 0.00 | 0.00 | 0.00 | 36 | 1010.9 |
| 20260901003013 | 93 | 221 | 2.0 | 5.0 | 0.00 | 0.00 | 0.00 | 36 | 1010.9 |
| 20260901002513 | 94 | 217 | 2.0 | 8.0 | 0.00 | 0.00 | 0.00 | 36 | 1010.8 |
| 20260901002012 | 94 | 213 | 3.0 | 8.0 | 0.00 | 0.00 | 0.00 | 35 | 1010.8 |
| 20260901001512 | 94 | 211 | 4.0 | 8.0 | 0.00 | 0.00 | 0.00 | 35 | 1010.7 |
| 20260901001011 | 95 | 203 | 2.0 | 8.0 | 0.00 | 0.00 | 0.00 | 34 | 1010.8 |
| 20260901000512 | 95 | 147 | 3.0 | 9.0 | 0.00 | 0.00 | 0.00 | 34 | 1010.7 |
| 20260901000011 | 95 | 213 | 5.0 | 9.0 | 0.00 | 0.00 | 0.00 | 33 | 1010.8 |
| 20260831235611 | 96 | 201 | 4.0 | 7.0 | 0.00 | 0.00 | 0.00 | 33 | 1010.8 |
| 20260831235011 | 96 | 195 | 3.0 | 8.0 | 0.00 | 0.00 | 0.00 | 33 | 1010.8 |
| 20260831234514 | 96 | 223 | 3.0 | 8.0 | 0.00 | 0.00 | 0.00 | 32 | 1010.9 |
| 20260831234011 | 96 | 202 | 4.0 | 8.0 | 0.00 | 0.00 | 0.00 | 32 | 1010.8 |
| 20260831233511 | 96 | 201 | 4.0 | 10.0 | 0.00 | 0.00 | 0.00 | 32 | 1010.7 |
| 20260831233010 | 96 | 200 | 3.0 | 10.0 | 0.00 | 0.00 | 0.00 | 32 | 1010.8 |
| 20260831232510 | 97 | 190 | 7.0 | 10.0 | 0.00 | 0.00 | 0.00 | 31 | 1010.8 |
| 20260831232012 | 97 | 177 | 5.0 | 11.0 | 0.00 | 0.00 | 0.00 | 30 | 1010.8 |
| 20260831231509 | 97 | 223 | 5.0 | 11.0 | 0.00 | 0.00 | 0.00 | 31 | 1010.8 |
| 20260831231010 | 97 | 182 | 6.0 | 10.0 | 0.00 | 0.00 | 0.00 | 30 | 1010.9 |
| 20260831230509 | 97 | 221 | 5.0 | 11.0 | 0.00 | 0.00 | 0.00 | 31 | 1010.9 |
| 20260831230010 | 97 | 231 | 4.0 | 10.0 | 0.00 | 0.00 | 0.00 | 30 | 1010.9 |
| 20260831225608 | 97 | 211 | 3.0 | 7.0 | 0.00 | 0.00 | 0.00 | 31 | 1010.9 |
| 20260831225012 | 97 | 192 | 2.0 | 7.0 | 0.00 | 0.00 | 0.00 | 31 | 1010.9 |
| 20260831224508 | 98 | 220 | 4.0 | 9.0 | 0.00 | 0.00 | 0.00 | 30 | 1010.9 |
| 20260831224009 | 99 | 222 | 4.0 | 9.0 | 0.00 | 0.00 | 0.00 | 30 | 1010.9 |
| 20260831223509 | 99 | 220 | 3.0 | 10.0 | 0.00 | 0.00 | 0.00 | 29 | 1010.9 |
| 20260831223008 | 99 | 237 | 3.0 | 10.0 | 0.00 | 0.00 | 0.00 | 29 | 1010.9 |
| 20260831222510 | 99 | 235 | 5.0 | 10.0 | 0.00 | 0.00 | 0.00 | 29 | 1011.0 |
| 20260831222007 | 99 | 156 | 4.0 | 13.0 | 0.00 | 0.00 | 0.00 | 29 | 1011.0 |
| 20260831221507 | 100 | 202 | 8.0 | 13.0 | 0.00 | 0.00 | 0.00 | 28 | 1011.0 |
| 20260831221008 | 100 | 245 | 3.0 | 11.0 | 0.00 | 0.00 | 0.00 | 28 | 1011.0 |
| 20260831220506 | 99 | 192 | 6.0 | 12.0 | 0.00 | 0.00 | 0.00 | 29 | 1011.0 |
| 20260831220008 | 99 | 188 | 5.0 | 12.0 | 0.00 | 0.00 | 0.00 | 29 | 1011.0 |
| 20260831215605 | 99 | 196 | 2.0 | 12.0 | 0.00 | 0.00 | 0.00 | 28 | 1011.1 |
| 20260831215005 | 99 | 68 | 4.0 | 14.0 | 0.00 | 0.00 | 0.00 | 28 | 1011.0 |
| 20260831214504 | 99 | 126 | 6.0 | 14.0 | 0.00 | 0.00 | 0.00 | 28 | 1011.1 |
| 20260831214002 | 100 | 157 | 7.0 | 12.0 | 0.00 | 0.00 | 0.00 | 28 | 1011.1 |
| 20260831213500 | 100 | 163 | 5.0 | 11.0 | 0.00 | 0.00 | 0.00 | 28 | 1011.0 |
| 20260831213102 | 99 | 227 | 5.0 | 13.0 | 0.00 | 0.00 | 0.00 | 28 | 1011.1 |
| 20260831212559 | 99 | 204 | 7.0 | 13.0 | 0.00 | 0.00 | 0.00 | 28 | 1011.1 |
| 20260831212100 | 99 | 180 | 2.0 | 7.0 | 0.00 | 0.00 | 0.00 | 29 | 1011.0 |
| 20260831211556 | 99 | 331 | 4.0 | 9.0 | 0.00 | 0.00 | 0.00 | 29 | 1011.1 |
| 20260831211054 | 99 | 298 | 4.0 | 11.0 | 0.00 | 0.00 | 0.00 | 30 | 1011.2 |
| 20260831210553 | 99 | 172 | 3.0 | 11.0 | 0.00 | 0.00 | 0.00 | 31 | 1011.2 |
| 20260831210052 | 99 | 133 | 1.0 | 11.0 | 0.00 | 0.00 | 0.00 | 30 | 1011.4 |
| 20260831205551 | 98 | 194 | 6.0 | 12.0 | 0.00 | 0.00 | 0.00 | 31 | 1011.4 |
| 20260831205051 | 98 | 207 | 7.0 | 12.0 | 0.00 | 0.00 | 0.00 | 31 | 1011.4 |
| 20260831204549 | 99 | 171 | 4.0 | 11.0 | 0.00 | 0.00 | 0.00 | 31 | 1011.5 |
| 20260831204048 | 98 | 182 | 4.0 | 12.0 | 0.00 | 0.00 | 0.00 | 31 | 1011.6 |
| 20260831203546 | 98 | 201 | 8.0 | 14.0 | 0.00 | 0.00 | 0.00 | 31 | 1011.8 |
| 20260831203045 | 98 | 220 | 8.0 | 14.0 | 0.00 | 0.00 | 0.00 | 31 | 1011.7 |
| 20260831202544 | 98 | 267 | 5.0 | 12.0 | 0.00 | 0.00 | 0.00 | 32 | 1011.7 |
| 20260831202043 | 98 | 288 | 6.0 | 12.0 | 0.00 | 0.00 | 0.00 | 30 | 1011.8 |
| 20260831201542 | 98 | 267 | 6.0 | 12.0 | 0.00 | 0.00 | 0.00 | 31 | 1011.9 |
| 20260831201041 | 98 | 190 | 6.0 | 11.0 | 0.00 | 0.00 | 0.00 | 31 | 1011.9 |
| 20260831200540 | 98 | 155 | 1.0 | 7.0 | 0.00 | 0.00 | 0.00 | 32 | 1011.9 |
| 20260831200040 | 97 | 242 | 3.0 | 9.0 | 0.00 | 0.00 | 0.00 | 32 | 1012.0 |
| 20260831195540 | 97 | 270 | 3.0 | 10.0 | 0.00 | 0.00 | 0.00 | 35 | 1012.2 |
| 20260831195040 | 96 | 274 | 2.0 | 10.0 | 0.00 | 0.00 | 0.00 | 35 | 1012.2 |
| 20260831194610 | 96 | 223 | 4.0 | 10.0 | 0.00 | 0.00 | 0.00 | 34 | 1012.4 |
| 20260831194040 | 96 | 255 | 6.0 | 12.0 | 0.00 | 0.00 | 0.00 | 34 | 1012.4 |
| 20260831193540 | 97 | 213 | 5.0 | 11.0 | 0.00 | 0.00 | 0.00 | 34 | 1012.3 |
| 20260831193040 | 97 | 240 | 1.0 | 10.0 | 0.00 | 0.00 | 0.00 | 33 | 1012.4 |
| 20260831192540 | 98 | 184 | 4.0 | 10.0 | 0.00 | 0.00 | 0.00 | 33 | 1012.4 |
| 20260831192037 | 97 | 196 | 4.0 | 16.0 | 0.00 | 0.00 | 0.00 | 33 | 1012.6 |
| 20260831191537 | 97 | 104 | 9.0 | 16.0 | 0.00 | 0.00 | 0.00 | 32 | 1012.6 |
| 20260831191039 | 97 | 160 | 5.0 | 11.0 | 0.00 | 0.00 | 0.00 | 33 | 1012.7 |
| 20260831190538 | 97 | 175 | 3.0 | 12.0 | 0.00 | 0.00 | 0.00 | 32 | 1012.8 |
| 20260831190038 | 98 | 167 | 5.0 | 19.0 | 0.00 | 0.00 | 0.00 | 32 | 1012.8 |
| 20260831185538 | 97 | 312 | 1.0 | 11.0 | 0.00 | 0.00 | 0.00 | 34 | 1012.8 |
| 20260831185037 | 97 | 322 | 0.0 | 11.0 | 0.00 | 0.00 | 0.00 | 33 | 1012.8 |
| 20260831184538 | 97 | 236 | 6.0 | 11.0 | 0.00 | 0.00 | 0.00 | 34 | 1012.9 |
| 20260831184033 | 97 | 159 | 4.0 | 11.0 | 0.00 | 0.00 | 0.00 | 34 | 1013.0 |
| 20260831183533 | 96 | 28 | 3.0 | 5.0 | 0.00 | 0.00 | 0.00 | 34 | 1013.0 |
| 20260831183032 | 96 | 31 | 1.0 | 8.0 | 0.00 | 0.00 | 0.00 | 35 | 1013.1 |
| 20260831182532 | 96 | 315 | 3.0 | 8.0 | 0.00 | 0.00 | 0.00 | 35 | 1013.2 |
| 20260831182035 | 96 | 265 | 1.0 | 10.0 | 0.00 | 0.00 | 0.00 | 36 | 1013.3 |
| 20260831181533 | 96 | 242 | 6.0 | 10.0 | 0.00 | 0.00 | 0.00 | 36 | 1013.4 |
| 20260831181032 | 96 | 281 | 5.0 | 10.0 | 0.00 | 0.00 | 0.00 | 36 | 1013.4 |
| 20260831180529 | 95 | 151 | 5.0 | 10.0 | 0.00 | 0.00 | 0.00 | 37 | 1013.6 |
| 20260831180029 | 94 | 234 | 5.0 | 11.0 | 0.00 | 0.00 | 0.00 | 38 | 1013.6 |
| 20260831175528 | 94 | 186 | 2.0 | 12.0 | 0.00 | 0.00 | 0.00 | 38 | 1013.7 |
| 20260831175029 | 94 | 244 | 2.0 | 12.0 | 0.00 | 0.00 | 0.00 | 38 | 1013.7 |
| 20260831174529 | 94 | 279 | 5.0 | 14.0 | 0.00 | 0.00 | 0.00 | 39 | 1013.8 |
| 20260831174029 | 95 | 284 | 9.0 | 14.0 | 0.00 | 0.00 | 0.00 | 38 | 1013.8 |
| 20260831173527 | 95 | 275 | 5.0 | 12.0 | 0.00 | 0.00 | 0.00 | 38 | 1014.0 |
| 20260831173027 | 94 | 256 | 3.0 | 12.0 | 0.00 | 0.00 | 0.00 | 39 | 1013.9 |
| 20260831172526 | 95 | 302 | 3.0 | 14.0 | 0.00 | 0.00 | 0.00 | 40 | 1014.0 |
| 20260831172026 | 94 | 227 | 6.0 | 14.0 | 0.00 | 0.00 | 0.00 | 40 | 1014.1 |
| 20260831171525 | 94 | 320 | 2.0 | 10.0 | 0.00 | 0.00 | 0.00 | 40 | 1014.1 |
| 20260831171028 | 94 | 322 | 6.0 | 10.0 | 0.00 | 0.00 | 0.00 | 40 | 1014.1 |
| 20260831170525 | 93 | 281 | 2.0 | 11.0 | 0.00 | 0.00 | 0.00 | 42 | 1014.2 |
| 20260831170029 | 94 | 294 | 5.0 | 11.0 | 0.00 | 0.00 | 0.00 | 41 | 1014.3 |
| 20260831165523 | 93 | 227 | 5.0 | 10.0 | 0.00 | 0.00 | 0.00 | 42 | 1014.4 |
| 20260831165023 | 93 | 282 | 5.0 | 10.0 | 0.00 | 0.00 | 0.00 | 42 | 1014.4 |
| 20260831164523 | 93 | 247 | 4.0 | 10.0 | 0.00 | 0.00 | 0.00 | 43 | 1014.4 |
| 20260831164022 | 93 | 221 | 4.0 | 8.0 | 0.00 | 0.00 | 0.00 | 44 | 1014.4 |
| 20260831163521 | 92 | 269 | 2.0 | 8.0 | 0.00 | 0.00 | 0.00 | 45 | 1014.4 |
| 20260831163030 | 92 | 272 | 2.0 | 10.0 | 0.00 | 0.00 | 0.00 | 45 | 1014.4 |
| 20260831162524 | 92 | 309 | 4.0 | 10.0 | 0.00 | 0.00 | 0.00 | 45 | 1014.4 |
| 20260831162019 | 92 | 225 | 4.0 | 10.0 | 0.00 | 0.00 | 0.00 | 45 | 1014.4 |
| 20260831161517 | 92 | 221 | 5.0 | 13.0 | 0.00 | 0.00 | 0.00 | 46 | 1014.4 |
| 20260831161021 | 91 | 165 | 6.0 | 13.0 | 0.00 | 0.00 | 0.00 | 46 | 1014.4 |
| 20260831160515 | 91 | 207 | 4.0 | 11.0 | 0.00 | 0.00 | 0.00 | 46 | 1014.4 |
| 20260831160014 | 91 | 159 | 5.0 | 12.0 | 0.00 | 0.00 | 0.00 | 47 | 1014.3 |
| 20260831155513 | 91 | 297 | 4.0 | 10.0 | 0.00 | 0.00 | 0.00 | 48 | 1014.3 |
| 20260831155014 | 91 | 198 | 4.0 | 14.0 | 0.00 | 0.00 | 0.00 | 47 | 1014.3 |
| 20260831154515 | 90 | 194 | 4.0 | 14.0 | 0.00 | 0.00 | 0.00 | 47 | 1014.3 |
| 20260831154012 | 90 | 207 | 7.0 | 11.0 | 0.00 | 0.00 | 0.00 | 48 | 1014.3 |
| 20260831153510 | 90 | 245 | 3.0 | 12.0 | 0.00 | 0.00 | 0.00 | 48 | 1014.3 |
| 20260831153017 | 89 | 202 | 4.0 | 9.0 | 0.00 | 0.00 | 0.00 | 50 | 1014.3 |
| 20260831152508 | 89 | 202 | 4.0 | 12.0 | 0.00 | 0.00 | 0.00 | 50 | 1014.3 |
| 20260831152008 | 89 | 267 | 6.0 | 12.0 | 0.00 | 0.00 | 0.00 | 50 | 1014.3 |
| 20260831151508 | 89 | 242 | 5.0 | 10.0 | 0.00 | 0.00 | 0.00 | 50 | 1014.4 |
| 20260831151006 | 88 | 169 | 5.0 | 11.0 | 0.00 | 0.00 | 0.00 | 51 | 1014.4 |
| 20260831150505 | 88 | 196 | 5.0 | 11.0 | 0.00 | 0.00 | 0.00 | 51 | 1014.3 |
| 20260831150004 | 88 | 175 | 7.0 | 13.0 | 0.00 | 0.00 | 0.00 | 52 | 1014.2 |
| 20260831145502 | 87 | 207 | 5.0 | 13.0 | 0.00 | 0.00 | 0.00 | 54 | 1014.3 |
| 20260831145002 | 87 | 224 | 4.0 | 13.0 | 0.00 | 0.00 | 0.00 | 54 | 1014.3 |
| 20260831144501 | 87 | 219 | 5.0 | 12.0 | 0.00 | 0.00 | 0.00 | 55 | 1014.2 |
| 20260831144101 | 86 | 209 | 6.0 | 13.0 | 0.00 | 0.00 | 0.00 | 55 | 1014.2 |
| 20260831143600 | 86 | 229 | 6.0 | 13.0 | 0.00 | 0.00 | 0.00 | 55 | 1014.2 |
| 20260831143112 | 86 | 210 | 4.0 | 10.0 | 0.00 | 0.00 | 0.00 | 56 | 1014.2 |
| 20260831142559 | 85 | 229 | 3.0 | 10.0 | 0.00 | 0.00 | 0.00 | 57 | 1014.2 |
| 20260831142055 | 85 | 184 | 5.0 | 10.0 | 0.00 | 0.00 | 0.00 | 58 | 1014.3 |
| 20260831141613 | 84 | 172 | 4.0 | 10.0 | 0.00 | 0.00 | 0.00 | 58 | 1014.4 |
| 20260831141054 | 84 | 204 | 4.0 | 10.0 | 0.00 | 0.00 | 0.00 | 59 | 1014.4 |
| 20260831140553 | 84 | 171 | 4.0 | 9.0 | 0.00 | 0.00 | 0.00 | 59 | 1014.4 |
| 20260831140056 | 83 | 185 | 5.0 | 9.0 | 0.00 | 0.00 | 0.00 | 60 | 1014.4 |
| 20260831135551 | 83 | 205 | 3.0 | 7.0 | 0.00 | 0.00 | 0.00 | 61 | 1014.3 |
| 20260831134559 | 82 | 180 | 2.0 | 8.0 | 0.00 | 0.00 | 0.00 | 62 | 1014.3 |
| 20260831134049 | 82 | 193 | 4.0 | 8.0 | 0.00 | 0.00 | 0.00 | 62 | 1014.2 |
| 20260831133548 | 81 | 173 | 5.0 | 7.0 | 0.00 | 0.00 | 0.00 | 62 | 1014.1 |
| 20260831133049 | 81 | 180 | 1.0 | 4.0 | 0.00 | 0.00 | 0.00 | 63 | 1014.1 |
| 20260831132548 | 80 | 141 | 1.0 | 3.0 | 0.00 | 0.00 | 0.00 | 64 | 1014.0 |
| 20260831132048 | 80 | 140 | 0.0 | 3.0 | 0.00 | 0.00 | 0.00 | 64 | 1014.0 |
| 20260831131546 | 80 | 142 | 1.0 | 3.0 | 0.00 | 0.00 | 0.00 | 65 | 1014.0 |
| 20260831131045 | 79 | 147 | 1.0 | 4.0 | 0.00 | 0.00 | 0.00 | 65 | 1013.8 |
| 20260831130544 | 79 | 147 | 1.0 | 4.0 | 0.00 | 0.00 | 0.00 | 66 | 1013.7 |
| 20260831130052 | 79 | 169 | 2.0 | 4.0 | 0.00 | 0.00 | 0.00 | 66 | 1013.7 |
| 20260831125544 | 78 | 171 | 0.0 | 2.0 | 0.00 | 0.00 | 0.00 | 66 | 1013.7 |
| 20260831124542 | 78 | 171 | 0.0 | 0.0 | 0.00 | 0.00 | 0.00 | 67 | 1013.7 |
| 20260831124041 | 77 | 171 | 0.0 | 0.0 | 0.00 | 0.00 | 0.00 | 68 | 1013.6 |
| 20260831123540 | 77 | 171 | 0.0 | 0.0 | 0.00 | 0.00 | 0.00 | 68 | 1013.5 |
| 20260831123040 | 76 | 171 | 0.0 | 0.0 | 0.00 | 0.00 | 0.00 | 69 | 1013.5 |
| 20260831122541 | 76 | 171 | 0.0 | 0.0 | 0.00 | 0.00 | 0.00 | 70 | 1013.3 |
| 20260831122039 | 75 | 171 | 0.0 | 0.0 | 0.00 | 0.00 | 0.00 | 70 | 1013.2 |
| 20260831121538 | 75 | 171 | 0.0 | 0.0 | 0.00 | 0.00 | 0.00 | 71 | 1013.2 |
| 20260831121038 | 75 | 171 | 0.0 | 0.0 | 0.00 | 0.00 | 0.00 | 71 | 1013.2 |
| 20260831120537 | 74 | 171 | 0.0 | 0.0 | 0.00 | 0.00 | 0.00 | 71 | 1013.2 |
| 20260831120037 | 74 | 171 | 0.0 | 1.0 | 0.00 | 0.00 | 0.00 | 70 | 1013.2 |
| 20260831115535 | 75 | 171 | 0.0 | 3.0 | 0.00 | 0.00 | 0.00 | 69 | 1013.1 |
| 20260831114540 | 75 | 171 | 0.0 | 3.0 | 0.00 | 0.00 | 0.00 | 68 | 1013.0 |
| 20260831114038 | 76 | 171 | 2.0 | 4.0 | 0.00 | 0.00 | 0.00 | 67 | 1012.9 |
| 20260831113533 | 76 | 171 | 2.0 | 5.0 | 0.00 | 0.00 | 0.00 | 67 | 1012.8 |
| 20260831113033 | 76 | 171 | 2.0 | 5.0 | 0.00 | 0.00 | 0.00 | 67 | 1012.7 |
| 20260831112531 | 76 | 173 | 3.0 | 6.0 | 0.00 | 0.00 | 0.00 | 67 | 1012.7 |
| 20260831112031 | 77 | 163 | 3.0 | 7.0 | 0.00 | 0.00 | 0.00 | 66 | 1012.7 |
| 20260831111530 | 77 | 167 | 4.0 | 7.0 | 0.00 | 0.00 | 0.00 | 66 | 1012.7 |
| 20260831111032 | 77 | 142 | 3.0 | 5.0 | 0.00 | 0.00 | 0.00 | 66 | 1012.6 |
| 20260831110530 | 77 | 171 | 3.0 | 5.0 | 0.00 | 0.00 | 0.00 | 65 | 1012.6 |
| 20260831110034 | 77 | 178 | 3.0 | 6.0 | 0.00 | 0.00 | 0.00 | 65 | 1012.6 |
| 20260831105529 | 77 | 176 | 3.0 | 7.0 | 0.00 | 0.00 | 0.00 | 64 | 1012.7 |
| 20260831104529 | 78 | 186 | 4.0 | 7.0 | 0.00 | 0.00 | 0.00 | 64 | 1012.6 |
| 20260831104028 | 78 | 188 | 4.0 | 7.0 | 0.00 | 0.00 | 0.00 | 64 | 1012.5 |
| 20260831103528 | 78 | 184 | 2.0 | 8.0 | 0.00 | 0.00 | 0.00 | 63 | 1012.5 |
| 20260831103027 | 78 | 173 | 4.0 | 9.0 | 0.00 | 0.00 | 0.00 | 63 | 1012.5 |
| 20260831102527 | 78 | 179 | 4.0 | 9.0 | 0.00 | 0.00 | 0.00 | 63 | 1012.5 |
| 20260831102031 | 78 | 180 | 4.0 | 9.0 | 0.00 | 0.00 | 0.00 | 62 | 1012.5 |
| 20260831101530 | 78 | 175 | 5.0 | 8.0 | 0.00 | 0.00 | 0.00 | 62 | 1012.4 |
| 20260831101030 | 78 | 177 | 5.0 | 12.0 | 0.00 | 0.00 | 0.00 | 62 | 1012.4 |
| 20260831100526 | 78 | 174 | 6.0 | 12.0 | 0.00 | 0.00 | 0.00 | 62 | 1012.4 |
| 20260831100026 | 78 | 183 | 5.0 | 10.0 | 0.00 | 0.00 | 0.00 | 63 | 1012.5 |
| 20260831095526 | 77 | 168 | 5.0 | 10.0 | 0.00 | 0.00 | 0.00 | 64 | 1012.5 |
| 20260831094527 | 77 | 201 | 3.0 | 7.0 | 0.00 | 0.00 | 0.00 | 64 | 1012.4 |
| 20260831094025 | 77 | 188 | 3.0 | 7.0 | 0.00 | 0.00 | 0.00 | 64 | 1012.4 |
| 20260831093525 | 77 | 183 | 3.0 | 6.0 | 0.00 | 0.00 | 0.00 | 64 | 1012.3 |
| 20260831093025 | 77 | 194 | 3.0 | 6.0 | 0.00 | 0.00 | 0.00 | 63 | 1012.3 |
| 20260831092523 | 77 | 179 | 3.0 | 6.0 | 0.00 | 0.00 | 0.00 | 63 | 1012.2 |
| 20260831092023 | 77 | 189 | 3.0 | 6.0 | 0.00 | 0.00 | 0.00 | 62 | 1012.3 |
| 20260831091522 | 77 | 184 | 2.0 | 4.0 | 0.00 | 0.00 | 0.00 | 62 | 1012.2 |
| 20260831091026 | 78 | 182 | 2.0 | 5.0 | 0.00 | 0.00 | 0.00 | 62 | 1012.2 |
| 20260831090520 | 78 | 181 | 3.0 | 5.0 | 0.00 | 0.00 | 0.00 | 61 | 1012.2 |
| 20260831090024 | 78 | 181 | 3.0 | 5.0 | 0.00 | 0.00 | 0.00 | 61 | 1012.1 |
| 20260831085519 | 79 | 197 | 2.0 | 5.0 | 0.00 | 0.00 | 0.00 | 60 | 1012.1 |
| 20260831084518 | 79 | 167 | 3.0 | 5.0 | 0.00 | 0.00 | 0.00 | 59 | 1012.1 |
| 20260831084017 | 79 | 171 | 3.0 | 5.0 | 0.00 | 0.00 | 0.00 | 59 | 1012.1 |
| 20260831083517 | 79 | 179 | 3.0 | 7.0 | 0.00 | 0.00 | 0.00 | 58 | 1012.1 |